Weather History for St. James, MN

Change the Weather History Date:

Sunday, February 17, 2013

  Actual Average Record
Temperature  
Mean Temperature 30 °F -  
Max Temperature 39 °F 30 °F 63 °F (1981)
Min Temperature 21 °F 11 °F -27 °F (1979)
Degree Days  
Heating Degree Days 35    
Moisture  
Dew Point 22 °F    
Average Humidity 70    
Maximum Humidity 80    
Minimum Humidity 60    
Precipitation  
Precipitation 0.00 in - - ()
Sea Level Pressure  
Sea Level Pressure 29.82 in    
Wind  
Wind Speed 11 mph (SE)    
Max Wind Speed 24 mph    
Max Gust Speed 31 mph    
Visibility 10 miles    
Events      
Averages and records for this station are not official NWS values.
T = Trace of Precipitation, MM = Missing Value Source: NWS Daily Summary

Daily Weather History Graph

Daily Weather History Graph

Search for Another Location

Airport:

Trip Planner

Search our weather history database for the weather conditions in past years. The results will help you decide how hot, cold, wet, or windy it might be!

Date:

Astronomy

Feb. 17, 2013 Rise Set
Actual Time 7:13 AM CST 5:51 PM CST
Civil Twilight 6:44 AM CST 6:20 PM CST
Nautical Twilight 6:10 AM CST 6:54 PM CST
Astronomical Twilight 5:37 AM CST 7:27 PM CST
Moon 10:51 AM CST (2/17) 1:03 AM CST (2/17)
Length of Visible Light 11h 36m
Length of Day
10h 37m
Waxing Crescent, 49% of the Moon is Illuminated
Feb 17
Waxing Crescent
Feb 17
First Quarter
Feb 25
Full
Mar 4
Last Quarter
Mar 11
New

Hourly Weather History & Observations

Time (CST) Temp. Windchill Dew Point Humidity Pressure Visibility Wind Dir Wind Speed Gust Speed Precip Events Conditions
12:14 AM 24.8 °F - 17.6 °F 74% 30.04 in 10.0 mi Calm Calm - N/A   Clear
12:35 AM 24.8 °F - 17.6 °F 74% 30.05 in 10.0 mi Calm Calm - N/A   Clear
12:55 AM 23.0 °F - 17.6 °F 80% 30.05 in 10.0 mi Calm Calm - N/A   Clear
1:14 AM 23.0 °F - 17.6 °F 80% 30.05 in 10.0 mi Calm Calm - N/A   Clear
1:35 AM 23.0 °F - 17.6 °F 80% 30.04 in 10.0 mi Calm Calm - N/A   Clear
1:55 AM 23.0 °F - 17.6 °F 80% 30.04 in 10.0 mi Calm Calm - N/A   Clear
2:14 AM 23.0 °F - 17.6 °F 80% 30.04 in 10.0 mi Calm Calm - N/A   Clear
2:35 AM 23.0 °F 13.1 °F 17.6 °F 80% 30.03 in 10.0 mi SE 9.2 mph - N/A   Clear
2:55 AM 23.0 °F 13.1 °F 17.6 °F 80% 30.02 in 10.0 mi SE 9.2 mph - N/A   Clear
3:14 AM 23.0 °F 12.4 °F 17.6 °F 80% 30.02 in 10.0 mi SE 10.4 mph - N/A   Clear
3:35 AM 23.0 °F 13.1 °F 17.6 °F 80% 30.02 in 10.0 mi SE 9.2 mph - N/A   Clear
3:55 AM 23.0 °F 12.4 °F 17.6 °F 80% 30.01 in 10.0 mi SE 10.4 mph - N/A   Clear
4:14 AM 23.0 °F 12.4 °F 17.6 °F 80% 30.00 in 10.0 mi SE 10.4 mph - N/A   Clear
4:35 AM 21.2 °F 10.9 °F 15.8 °F 80% 30.00 in 10.0 mi SE 9.2 mph - N/A   Clear
4:55 AM 21.2 °F 10.9 °F 15.8 °F 80% 29.99 in 10.0 mi SE 9.2 mph - N/A   Clear
5:15 AM 21.2 °F 10.1 °F 15.8 °F 80% 29.99 in 10.0 mi SE 10.4 mph - N/A   Clear
5:34 AM 21.2 °F 10.1 °F 15.8 °F 80% 29.98 in 10.0 mi SE 10.4 mph - N/A   Clear
5:55 AM 21.2 °F 10.1 °F 15.8 °F 80% 29.98 in 10.0 mi SE 10.4 mph - N/A   Clear
6:15 AM 21.2 °F 9.5 °F 15.8 °F 80% 29.97 in 10.0 mi SE 11.5 mph - N/A   Clear
6:34 AM 21.2 °F 10.9 °F 15.8 °F 80% 29.96 in 10.0 mi SE 9.2 mph - N/A   Clear
6:55 AM 21.2 °F 9.5 °F 15.8 °F 80% 29.95 in 10.0 mi SE 11.5 mph - N/A   Clear
7:15 AM 21.2 °F 9.5 °F 15.8 °F 80% 29.95 in 10.0 mi SE 11.5 mph - N/A   Clear
7:34 AM 21.2 °F 9.5 °F 15.8 °F 80% 29.95 in 10.0 mi SE 11.5 mph - N/A   Clear
7:55 AM 21.2 °F 10.1 °F 15.8 °F 80% 29.95 in 10.0 mi SE 10.4 mph - N/A   Clear
8:15 AM 23.0 °F 11.7 °F 15.8 °F 74% 29.94 in 10.0 mi SE 11.5 mph - N/A   Clear
8:35 AM 24.8 °F 12.4 °F 15.8 °F 69% 29.93 in 10.0 mi SE 15.0 mph 18.4 mph N/A   Clear
8:55 AM 24.8 °F 12.4 °F 17.6 °F 74% 29.93 in 10.0 mi SSE 15.0 mph - N/A   Clear
9:15 AM 26.6 °F 13.8 °F 17.6 °F 69% 29.92 in 10.0 mi SSE 17.3 mph - N/A   Clear
9:35 AM 26.6 °F 15.2 °F 17.6 °F 69% 29.91 in 10.0 mi SSE 13.8 mph - N/A   Clear
9:54 AM 28.4 °F 16.6 °F 19.4 °F 69% 29.90 in 10.0 mi SSE 16.1 mph - N/A   Clear
10:14 AM 28.4 °F 15.8 °F 19.4 °F 69% 29.90 in 10.0 mi SSE 18.4 mph 23.0 mph N/A   Clear
10:35 AM 30.2 °F 17.8 °F 19.4 °F 64% 29.89 in 10.0 mi SSE 19.6 mph 25.3 mph N/A   Clear
11:15 AM 32.0 °F 20.1 °F 21.2 °F 64% 29.87 in 10.0 mi SSE 19.6 mph 25.3 mph N/A   Clear
11:35 AM 33.8 °F 23.5 °F 21.2 °F 60% 29.86 in 10.0 mi SSE 16.1 mph 24.2 mph N/A   Clear
11:54 AM 33.8 °F 22.8 °F 23.0 °F 65% 29.85 in 10.0 mi SE 18.4 mph 21.9 mph N/A   Clear
12:15 PM 35.6 °F 25.2 °F 23.0 °F 60% 29.84 in 10.0 mi SSE 18.4 mph 24.2 mph N/A   Clear
12:35 PM 35.6 °F 24.5 °F 23.0 °F 60% 29.82 in 10.0 mi SE 20.7 mph - N/A   Clear
12:55 PM 35.6 °F 24.8 °F 24.8 °F 65% 29.81 in 10.0 mi SE 19.6 mph 25.3 mph N/A   Clear
1:15 PM 37.4 °F 26.6 °F 24.8 °F 60% 29.80 in 10.0 mi SE 21.9 mph 26.5 mph N/A   Clear
1:34 PM 37.4 °F 27.2 °F 24.8 °F 60% 29.78 in 10.0 mi SE 19.6 mph 27.6 mph N/A   Clear
1:55 PM 37.4 °F 26.6 °F 24.8 °F 60% 29.76 in 10.0 mi SE 21.9 mph 29.9 mph N/A   Clear
2:14 PM 37.4 °F 27.2 °F 24.8 °F 60% 29.75 in 10.0 mi SE 19.6 mph 27.6 mph N/A   Clear
2:35 PM 37.4 °F 26.6 °F 26.6 °F 65% 29.74 in 10.0 mi SE 21.9 mph 26.5 mph N/A   Clear
2:55 PM 39.2 °F 28.5 °F 26.6 °F 61% 29.73 in 10.0 mi SE 24.2 mph 27.6 mph N/A   Clear
3:14 PM 39.2 °F 28.7 °F 26.6 °F 61% 29.73 in 10.0 mi SE 23.0 mph 28.8 mph N/A   Clear
3:35 PM 39.2 °F 28.7 °F 26.6 °F 61% 29.71 in 10.0 mi SE 23.0 mph 29.9 mph N/A   Clear
3:55 PM 39.2 °F 28.7 °F 28.4 °F 65% 29.70 in 10.0 mi SE 23.0 mph 27.6 mph N/A   Clear
4:15 PM 39.2 °F 29.0 °F 26.6 °F 61% 29.69 in 10.0 mi SE 21.9 mph 27.6 mph N/A   Clear
4:35 PM 39.2 °F 29.0 °F 28.4 °F 65% 29.68 in 10.0 mi SE 21.9 mph 28.8 mph N/A   Clear
4:55 PM 37.4 °F 27.8 °F 28.4 °F 70% 29.67 in 10.0 mi SE 17.3 mph 26.5 mph N/A   Clear
5:14 PM 37.4 °F 26.9 °F 26.6 °F 65% 29.67 in 10.0 mi SE 20.7 mph 29.9 mph N/A   Clear
5:35 PM 37.4 °F 26.6 °F 26.6 °F 65% 29.65 in 10.0 mi SE 21.9 mph 27.6 mph N/A   Clear
5:55 PM 37.4 °F 27.5 °F 26.6 °F 65% 29.66 in 10.0 mi SE 18.4 mph 27.6 mph N/A   Clear
6:14 PM 37.4 °F 26.6 °F 26.6 °F 65% 29.64 in 10.0 mi SE 21.9 mph 27.6 mph N/A   Clear
6:35 PM 37.4 °F 26.9 °F 26.6 °F 65% 29.65 in 10.0 mi SE 20.7 mph 26.5 mph N/A   Clear
6:55 PM 37.4 °F 26.4 °F 26.6 °F 65% 29.64 in 10.0 mi SE 23.0 mph 29.9 mph N/A   Clear
7:14 PM 37.4 °F 26.4 °F 26.6 °F 65% 29.63 in 10.0 mi SE 23.0 mph 28.8 mph N/A   Clear
7:35 PM 37.4 °F 26.1 °F 26.6 °F 65% 29.62 in 10.0 mi SE 24.2 mph 31.1 mph N/A   Clear
7:54 PM 37.4 °F 26.6 °F 26.6 °F 65% 29.62 in 10.0 mi SE 21.9 mph 27.6 mph N/A   Clear
8:15 PM 37.4 °F 26.6 °F 26.6 °F 65% 29.61 in 10.0 mi SE 21.9 mph 29.9 mph N/A   Clear
8:35 PM 37.4 °F 26.6 °F 26.6 °F 65% 29.60 in 10.0 mi SE 21.9 mph 31.1 mph N/A   Clear
8:55 PM 37.4 °F 26.9 °F 26.6 °F 65% 29.60 in 10.0 mi SE 20.7 mph 29.9 mph N/A   Clear
9:14 PM 37.4 °F 26.4 °F 26.6 °F 65% 29.59 in 10.0 mi SE 23.0 mph 28.8 mph N/A   Clear
9:34 PM 37.4 °F 26.9 °F 26.6 °F 65% 29.59 in 10.0 mi SE 20.7 mph 29.9 mph N/A   Clear
9:55 PM 37.4 °F 27.2 °F 26.6 °F 65% 29.58 in 10.0 mi SE 19.6 mph 26.5 mph N/A   Clear
10:15 PM 37.4 °F 28.2 °F 26.6 °F 65% 29.58 in 10.0 mi SE 16.1 mph 25.3 mph N/A   Clear
10:35 PM 37.4 °F 28.2 °F 26.6 °F 65% 29.58 in 10.0 mi SE 16.1 mph - N/A   Clear
10:55 PM 37.4 °F 28.9 °F 26.6 °F 65% 29.58 in 10.0 mi SSE 13.8 mph 25.3 mph N/A   Clear
11:15 PM 37.4 °F 28.9 °F 26.6 °F 65% 29.57 in 10.0 mi SSE 13.8 mph 20.7 mph N/A   Clear
11:35 PM 37.4 °F 29.8 °F 26.6 °F 65% 29.57 in 10.0 mi SSE 11.5 mph 16.1 mph N/A   Clear